Regional Weather Roundup
Issued by NWS

Home | Current Version | Previous Version | Text Only | Print | Product List | Glossary Off
Versions: 1 2 3 4 5 6 7 8 9 10 11 12 13 14 15 16 17 18 19 20 21 22 23 24 25 26 27 28

000
ASUS45 KCYS 200610
RWRWY

WYOMING REGIONAL WEATHER ROUNDUP
NATIONAL WEATHER SERVICE CHEYENNE WY
1200 AM MDT THU JUL 20 2017

NOTE:  "FAIR" INDICATES FEW OR NO CLOUDS BELOW 12,000 FEET
WITH NO SIGNIFICANT WEATHER AND/OR OBSTRUCTIONS TO VISIBILITY.

WYZ001-200700-
YELLOWSTONE NATIONAL PARK

CITY           SKY/WX    TMP DP  RH WIND       PRES   REMARKS
LK YELLOWSTONE   N/A     47  37  68 NW3       30.33F
6HR MIN TEMP:  47; 6HR MAX TEMP:  76;

W YELLOWSTONE  NOT AVBL

$$
WYZ002>013-054>058-071-098>099-200700-
NORTHERN WYOMING

CITY           SKY/WX    TMP DP  RH WIND       PRES   REMARKS
JACKSON        FAIR      54  39  58 N9        30.22S
CODY           FAIR      69  44  40 SW3       30.12R
GREYBULL       FAIR      78  45  30 SE6       30.01R
6HR MIN TEMP:  76; 6HR MAX TEMP:  98;

WORLAND        FAIR      80  53  39 S16G25    30.06R
6HR MIN TEMP:  80; 6HR MAX TEMP:  96;

SHERIDAN       FAIR      69  50  50 S7        30.04F
6HR MIN TEMP:  65; 6HR MAX TEMP:  90;

BUFFALO        FAIR      73  45  36 S7        30.15S
6HR MIN TEMP:  71; 6HR MAX TEMP:  87;

GILLETTE       FAIR      75  57  53 SE8       30.12R
6HR MIN TEMP:  74; 6HR MAX TEMP:  88;

HULETT         FAIR      73  54  49 SE9       30.14S
NEWCASTLE      MOCLDY    77  52  41 S15G21    30.16R

$$
WYZ014>020-022>026-101>103-200700-
CENTRAL WYOMING

CITY           SKY/WX    TMP DP  RH WIND       PRES   REMARKS
BIG PINEY      FAIR      65  50  58 S7        30.30R
6HR MIN TEMP:  65; 6HR MAX TEMP:  83; 6HR PCP: TRACE;

PINEDALE       FAIR      63  50  63 SE8       30.34R
DUBOIS         FAIR      61  32  33 CALM      30.28S
LANDER         FAIR      79  45  29 SW18G24   30.09F
6HR MIN TEMP:  76; 6HR MAX TEMP:  84; 6HR PCP: TRACE;

RIVERTON       FAIR      72  53  51 S16G25    30.12F
6HR MIN TEMP:  72; 6HR MAX TEMP:  88; 6HR PCP: TRACE;

CASPER         FAIR      69  55  60 S17       30.18F
6HR MIN TEMP:  68; 6HR MAX TEMP:  92;

DOUGLAS        FAIR      72  53  51 S5        30.19S
6HR MIN TEMP:  70; 6HR MAX TEMP:  90; 6HR PCP: TRACE;


$$
WYZ021-027>030-104>119-200700-
SOUTHERN WYOMING

CITY           SKY/WX    TMP DP  RH WIND       PRES   REMARKS
EVANSTON       FAIR      67  49  52 W5        30.29S
6HR MIN TEMP:  64; 6HR MAX TEMP:  77;

KEMMERER         N/A     66  43  42 S3        30.31F
FORT BRIDGER   FAIR      64  50  59 SE12      30.31S
ROCK SPRINGS   FAIR      67  47  48 S16       30.30R
6HR MIN TEMP:  63; 6HR MAX TEMP:  83; 6HR PCP: TRACE;

RAWLINS        FAIR      62  53  72 SW9       30.32F
6HR MIN TEMP:  62; 6HR MAX TEMP:  82; 6HR PCP:  0.01;

SARATOGA       FAIR      61  59  94 SE9       30.36F
LARAMIE        CLOUDY    61  56  83 S6        30.38R
6HR MIN TEMP:  61; 6HR MAX TEMP:  67; 6HR PCP:  0.05;

CHEYENNE       MOCLDY    69  54  58 NW9       30.28R
6HR MIN TEMP:  69; 6HR MAX TEMP:  86; 6HR PCP: TRACE;

TORRINGTON     LGT RAIN  67  64  90 N6        30.15F
6HR MIN TEMP:  67; 6HR MAX TEMP:  98; 6HR PCP:  0.66;

PINE BLUFFS    FAIR      66  59  77 N16G22    30.20F

$$




USA.gov is the U.S. government's official web portal to all federal, state and local government web resources and services.